N68JL KROA-KBTL

Flight info

Callsign N68JL
Flight time N/A
Altitude 20000
Route BISCT KLYNE HAAKK
Aircraft BE20/L-VGD/C

Departure

Time 2026-04-21 20:28
Airport Roanoke–Blacksburg Regional Airport (KROA)

Arrival

Time N/A
Airport Battle Creek Executive Airport at Kellogg Field (KBTL)
Time Latitude Longitude Altitude Speed Heading
2026-04-21 20:20 37.32707 -79.97468 1179 ft 0 kts 210°
2026-04-21 20:22 37.32706 -79.97468 1179 ft 0 kts 210°
2026-04-21 20:23 37.32706 -79.97469 1179 ft 1 kts 220°
2026-04-21 20:23 37.32699 -79.97509 1179 ft 7 kts 259°
2026-04-21 20:23 37.32682 -79.97573 1179 ft 8 kts 229°
2026-04-21 20:24 37.32643 -79.97631 1179 ft 9 kts 229°
2026-04-21 20:24 37.32600 -79.97693 1179 ft 10 kts 228°
2026-04-21 20:24 37.32599 -79.97762 1179 ft 10 kts 324°
2026-04-21 20:24 37.32677 -79.97826 1179 ft 16 kts 326°
2026-04-21 20:25 37.32780 -79.97908 1179 ft 17 kts 327°
2026-04-21 20:25 37.32866 -79.97974 1179 ft 11 kts 328°
2026-04-21 20:25 37.32914 -79.98014 1179 ft 4 kts 286°
2026-04-21 20:25 37.32913 -79.98020 1179 ft 0 kts 243°
2026-04-21 20:27 37.32911 -79.98026 1179 ft 3 kts 245°
2026-04-21 20:27 37.32893 -79.98071 1179 ft 9 kts 242°
2026-04-21 20:27 37.32826 -79.98055 1179 ft 18 kts 149°
2026-04-21 20:27 37.32581 -79.97865 1179 ft 71 kts 149°
2026-04-21 20:28 37.31985 -79.97402 1180 ft 131 kts 149°
2026-04-21 20:28 37.31128 -79.96700 1453 ft 153 kts 147°
2026-04-21 20:28 37.30246 -79.95905 1932 ft 159 kts 144°
2026-04-21 20:28 37.29314 -79.95075 2260 ft 170 kts 146°
2026-04-21 20:29 37.28352 -79.94235 2703 ft 169 kts 146°
2026-04-21 20:29 37.27420 -79.93369 3154 ft 164 kts 145°
2026-04-21 20:29 37.26509 -79.92523 3551 ft 163 kts 143°
2026-04-21 20:29 37.25721 -79.91547 4183 ft 157 kts 127°
2026-04-21 20:30 37.25312 -79.90281 4737 ft 159 kts 101°
2026-04-21 20:30 37.25406 -79.88865 5126 ft 169 kts 71°
2026-04-21 20:30 37.26038 -79.87615 5536 ft 170 kts 36°
2026-04-21 20:30 37.27112 -79.87103 6051 ft 166 kts
2026-04-21 20:31 37.28274 -79.87095 6603 ft 167 kts 353°
2026-04-21 20:31 37.29423 -79.87194 7239 ft 167 kts 352°
2026-04-21 20:31 37.30583 -79.87312 7904 ft 166 kts 351°
2026-04-21 20:31 37.31667 -79.87634 8645 ft 156 kts 326°
2026-04-21 20:32 37.32483 -79.88530 9254 ft 157 kts 312°
2026-04-21 20:32 37.33221 -79.89525 9824 ft 158 kts 311°
2026-04-21 20:32 37.33997 -79.90526 10375 ft 161 kts 314°
2026-04-21 20:32 37.34812 -79.91506 10958 ft 158 kts 316°
2026-04-21 20:33 37.35567 -79.92384 11835 ft 137 kts 317°
2026-04-21 20:33 37.36251 -79.93197 12442 ft 137 kts 316°
2026-04-21 20:33 37.36972 -79.94026 12893 ft 145 kts 317°
2026-04-21 20:33 37.37751 -79.94883 13336 ft 152 kts 319°
2026-04-21 20:34 37.38574 -79.95764 13770 ft 159 kts 319°
2026-04-21 20:34 37.39434 -79.96673 14199 ft 164 kts 319°
2026-04-21 20:34 37.40319 -79.97609 14631 ft 167 kts 319°
2026-04-21 20:34 37.41206 -79.98550 15055 ft 170 kts 319°
2026-04-21 20:35 37.42113 -79.99513 15485 ft 172 kts 319°
2026-04-21 20:35 37.43030 -80.00487 15912 ft 173 kts 319°
2026-04-21 20:35 37.43955 -80.01475 16340 ft 174 kts 319°
2026-04-21 20:35 37.44881 -80.02468 16767 ft 175 kts 319°
2026-04-21 20:36 37.45798 -80.03456 17189 ft 175 kts 319°
2026-04-21 20:36 37.46725 -80.04457 17615 ft 176 kts 319°
2026-04-21 20:36 37.47659 -80.05467 18042 ft 176 kts 319°
2026-04-21 20:36 37.48579 -80.06464 18463 ft 176 kts 318°
2026-04-21 20:37 37.49512 -80.07476 18890 ft 176 kts 318°
2026-04-21 20:37 37.50440 -80.08484 19314 ft 176 kts 318°
2026-04-21 20:37 37.51371 -80.09497 19739 ft 176 kts 318°
2026-04-21 20:37 37.52318 -80.10526 19920 ft 188 kts 319°
2026-04-21 20:38 37.53347 -80.11628 20003 ft 200 kts 319°
2026-04-21 20:38 37.54448 -80.12788 20002 ft 210 kts 319°
2026-04-21 20:38 37.55592 -80.13984 19992 ft 217 kts 320°
2026-04-21 20:38 37.56763 -80.15208 20082 ft 218 kts 319°
2026-04-21 20:39 37.57910 -80.16418 20213 ft 217 kts 319°
2026-04-21 20:39 37.59070 -80.17653 20276 ft 219 kts 319°
2026-04-21 20:39 37.60248 -80.18916 20292 ft 223 kts 319°
2026-04-21 20:39 37.61432 -80.20191 20294 ft 226 kts 319°
2026-04-21 20:40 37.62635 -80.21485 20292 ft 228 kts 319°
2026-04-21 20:40 37.63835 -80.22779 20290 ft 230 kts 319°
2026-04-21 20:40 37.65053 -80.24092 20288 ft 231 kts 319°
2026-04-21 20:40 37.66276 -80.25414 20287 ft 232 kts 319°
2026-04-21 20:41 37.67501 -80.26743 20284 ft 233 kts 319°
2026-04-21 20:41 37.68731 -80.28081 20283 ft 233 kts 319°
2026-04-21 20:41 37.69959 -80.29423 20283 ft 233 kts 319°
2026-04-21 20:41 37.71169 -80.30751 20282 ft 233 kts 319°
2026-04-21 20:42 37.72396 -80.32112 20280 ft 234 kts 317°
2026-04-21 20:42 37.73583 -80.33512 20278 ft 234 kts 316°
2026-04-21 20:42 37.74820 -80.34858 20278 ft 234 kts 320°
2026-04-21 20:42 37.76098 -80.36136 20277 ft 234 kts 321°
2026-04-21 20:43 37.77364 -80.37397 20275 ft 234 kts 320°
2026-04-21 20:43 37.78632 -80.38693 20273 ft 234 kts 320°
2026-04-21 20:43 37.79891 -80.40013 20272 ft 234 kts 319°
2026-04-21 20:43 37.81139 -80.41352 20272 ft 234 kts 319°
2026-04-21 20:44 37.82358 -80.42682 20271 ft 234 kts 319°
2026-04-21 20:44 37.83588 -80.44044 20272 ft 234 kts 318°
2026-04-21 20:44 37.84819 -80.45414 20271 ft 234 kts 318°
2026-04-21 20:44 37.86025 -80.46766 20271 ft 234 kts 318°
2026-04-21 20:45 37.87240 -80.48135 20277 ft 234 kts 318°
2026-04-21 20:45 37.88462 -80.49509 20274 ft 234 kts 318°
2026-04-21 20:45 37.89681 -80.50880 20271 ft 234 kts 318°
2026-04-21 20:45 37.90900 -80.52254 20270 ft 234 kts 317°
2026-04-21 20:46 37.92105 -80.53616 20269 ft 234 kts 317°
2026-04-21 20:46 37.93322 -80.54996 20268 ft 234 kts 317°
2026-04-21 20:46 37.94537 -80.56377 20268 ft 235 kts 317°
2026-04-21 20:46 37.95753 -80.57762 20267 ft 235 kts 317°
2026-04-21 20:47 37.96971 -80.59153 20265 ft 235 kts 317°
2026-04-21 20:47 37.98171 -80.60529 20266 ft 235 kts 317°
2026-04-21 20:47 37.99385 -80.61931 20268 ft 235 kts 317°
2026-04-21 20:47 38.00599 -80.63335 20264 ft 235 kts 317°
2026-04-21 20:48 38.01799 -80.64727 20261 ft 235 kts 317°
2026-04-21 20:48 38.03000 -80.66132 20259 ft 235 kts 316°
2026-04-21 20:48 38.04200 -80.67555 20257 ft 235 kts 316°
2026-04-21 20:48 38.05473 -80.68870 20256 ft 236 kts 322°
2026-04-21 20:49 38.06800 -80.70052 20255 ft 236 kts 324°
2026-04-21 20:49 38.08158 -80.71228 20255 ft 236 kts 324°
2026-04-21 20:49 38.09513 -80.72409 20253 ft 236 kts 323°